| time (UTC) | temp F | wind direction | speed MPH | gust MPH | rain 1hr in | rain 24hr in | rain mn in | humidity % | barometer mb |
| 20260505101608 | 76 | 320 | 1.0 | 4.0 | 0.00 | 0.00 | 0.00 | 41 | 1008.8 |
| 20260505100608 | 76 | 151 | 3.0 | 7.0 | 0.00 | 0.00 | 0.00 | 45 | 1008.9 |
| 20260505095608 | 78 | 165 | 3.0 | 7.0 | 0.00 | 0.00 | 0.00 | 44 | 1009.2 |
| 20260505094608 | 76 | 124 | 1.0 | 6.0 | 0.00 | 0.00 | 0.00 | 42 | 1009.1 |
| 20260505092607 | 75 | 113 | 0.0 | 7.0 | 0.00 | 0.00 | 0.00 | 45 | 1009.7 |
| 20260505091608 | 75 | 119 | 4.0 | 8.0 | 0.00 | 0.00 | 0.00 | 45 | 1009.7 |
| 20260505085608 | 74 | 104 | 2.0 | 7.0 | 0.00 | 0.00 | 0.00 | 46 | 1009.7 |
| 20260505084608 | 75 | 143 | 4.0 | 4.0 | 0.00 | 0.00 | 0.00 | 47 | 1010.1 |
| 20260505083608 | 76 | 114 | 1.0 | 6.0 | 0.00 | 0.00 | 0.00 | 44 | 1009.9 |
| 20260505081607 | 73 | 131 | 2.0 | 6.0 | 0.00 | 0.00 | 0.00 | 50 | 1010.2 |
| 20260505080608 | 72 | 332 | 1.0 | 4.0 | 0.00 | 0.00 | 0.00 | 46 | 1009.9 |
| 20260505075609 | 72 | 134 | 2.0 | 4.0 | 0.00 | 0.00 | 0.00 | 50 | 1010.3 |
| 20260505073607 | 71 | 340 | 1.0 | 4.0 | 0.00 | 0.00 | 0.00 | 53 | 1010.3 |
| 20260505070609 | 70 | 116 | 1.0 | 4.0 | 0.00 | 0.00 | 0.00 | 55 | 1010.3 |
| 20260505064607 | 67 | 132 | 0.0 | 6.0 | 0.00 | 0.00 | 0.00 | 59 | 1010.4 |
| 20260505063607 | 67 | 131 | 2.0 | 6.0 | 0.00 | 0.00 | 0.00 | 58 | 1010.5 |
| 20260505062610 | 66 | 135 | 3.0 | 4.0 | 0.00 | 0.00 | 0.00 | 59 | 1010.5 |
| 20260505061608 | 66 | 136 | 3.0 | 4.0 | 0.00 | 0.00 | 0.00 | 62 | 1010.3 |
| 20260505055608 | 65 | 136 | 1.0 | 2.0 | 0.00 | 0.00 | 0.00 | 63 | 1010.6 |
| 20260505054608 | 64 | 138 | 2.0 | 4.0 | 0.00 | 0.00 | 0.00 | 65 | 1010.6 |
| 20260505053608 | 63 | 136 | 2.0 | 3.0 | 0.00 | 0.00 | 0.00 | 69 | 1010.8 |
| 20260505052608 | 62 | 135 | 0.0 | 1.0 | 0.00 | 0.00 | 0.00 | 74 | 1010.7 |
| 20260505051608 | 62 | 135 | 0.0 | 1.0 | 0.00 | 0.00 | 0.00 | 77 | 1010.7 |
| 20260505050609 | 61 | 135 | 0.0 | 0.0 | 0.00 | 0.00 | 0.00 | 80 | 1010.9 |
| 20260505041611 | 50 | 135 | 0.0 | 0.0 | 0.00 | 0.00 | 0.00 | 99 | 1010.8 |
| 20260505040609 | 49 | 136 | 0.0 | 0.0 | 0.00 | 0.00 | 0.00 | 99 | 1011.0 |
| 20260505035609 | 48 | 137 | 0.0 | 0.0 | 0.00 | 0.00 | 0.00 | 99 | 1011.1 |
| 20260505033609 | 48 | 135 | 0.0 | 0.0 | 0.00 | 0.00 | 0.00 | 99 | 1010.8 |
| 20260505032608 | 48 | 129 | 0.0 | 0.0 | 0.00 | 0.00 | 0.00 | 99 | 1011.0 |
| 20260505031608 | 48 | 136 | 0.0 | 0.0 | 0.00 | 0.00 | 0.00 | 98 | 1010.8 |
| 20260505030610 | 48 | 135 | 0.0 | 0.0 | 0.00 | 0.00 | 0.00 | 98 | 1010.9 |
| 20260505025608 | 49 | 135 | 0.0 | 0.0 | 0.00 | 0.00 | 0.00 | 98 | 1010.8 |
| 20260505023608 | 49 | 135 | 0.0 | 0.0 | 0.00 | 0.00 | 0.00 | 97 | 1011.0 |
| 20260505022608 | 49 | 135 | 0.0 | 0.0 | 0.00 | 0.00 | 0.00 | 97 | 1011.3 |
| 20260505021608 | 49 | 135 | 0.0 | 0.0 | 0.00 | 0.00 | 0.00 | 96 | 1011.2 |
| 20260505020607 | 50 | 135 | 0.0 | 0.0 | 0.00 | 0.00 | 0.00 | 96 | 1011.0 |
| 20260505015606 | 50 | 135 | 0.0 | 0.0 | 0.00 | 0.00 | 0.00 | 96 | 1011.4 |
| 20260505014605 | 50 | 135 | 0.0 | 0.0 | 0.00 | 0.00 | 0.00 | 96 | 1011.4 |
| 20260505012606 | 51 | 135 | 0.0 | 0.0 | 0.00 | 0.00 | 0.00 | 97 | 1011.4 |
| 20260505011607 | 50 | 136 | 0.0 | 0.0 | 0.00 | 0.00 | 0.00 | 97 | 1011.3 |
| 20260505005557 | 50 | 137 | 0.0 | 0.0 | 0.00 | 0.00 | 0.00 | 97 | 1011.6 |
| 20260505003555 | 50 | 138 | 0.0 | 0.0 | 0.00 | 0.00 | 0.00 | 97 | 1011.6 |
| 20260505002555 | 49 | 138 | 0.0 | 0.0 | 0.00 | 0.00 | 0.00 | 96 | 1011.6 |
| 20260504235555 | 50 | 138 | 0.0 | 0.0 | 0.00 | 0.00 | 0.00 | 96 | 1011.8 |
| 20260504234557 | 49 | 138 | 0.0 | 0.0 | 0.00 | 0.00 | 0.00 | 95 | 1012.1 |
| 20260504233555 | 50 | 138 | 0.0 | 0.0 | 0.00 | 0.00 | 0.00 | 95 | 1012.1 |
| 20260504232554 | 50 | 138 | 0.0 | 0.0 | 0.00 | 0.00 | 0.00 | 95 | 1011.9 |
| 20260504231555 | 50 | 138 | 0.0 | 0.0 | 0.00 | 0.00 | 0.00 | 95 | 1012.1 |
| 20260504230555 | 51 | 138 | 0.0 | 0.0 | 0.00 | 0.00 | 0.00 | 94 | 1012.3 |
| 20260504225555 | 51 | 138 | 0.0 | 0.0 | 0.00 | 0.00 | 0.00 | 94 | 1012.3 |
| 20260504224555 | 51 | 138 | 0.0 | 0.0 | 0.00 | 0.00 | 0.00 | 93 | 1012.2 |
| 20260504222555 | 51 | 140 | 0.0 | 0.0 | 0.00 | 0.00 | 0.00 | 92 | 1012.3 |
| 20260504221555 | 51 | 140 | 0.0 | 0.0 | 0.00 | 0.00 | 0.00 | 91 | 1012.5 |
| 20260504220554 | 52 | 140 | 0.0 | 0.0 | 0.00 | 0.00 | 0.00 | 90 | 1013.0 |
| 20260504214556 | 53 | 140 | 0.0 | 0.0 | 0.00 | 0.00 | 0.00 | 88 | 1012.6 |
| 20260504213555 | 54 | 140 | 0.0 | 0.0 | 0.00 | 0.00 | 0.00 | 87 | 1012.6 |
| 20260504212557 | 54 | 144 | 0.0 | 0.0 | 0.00 | 0.00 | 0.00 | 86 | 1012.5 |
| 20260504211554 | 55 | 146 | 0.0 | 0.0 | 0.00 | 0.00 | 0.00 | 86 | 1012.7 |
| 20260504210555 | 55 | 135 | 0.0 | 0.0 | 0.00 | 0.00 | 0.00 | 85 | 1012.5 |
| 20260504205555 | 54 | 138 | 0.0 | 0.0 | 0.00 | 0.00 | 0.00 | 85 | 1012.7 |
| 20260504204555 | 54 | 135 | 0.0 | 0.0 | 0.00 | 0.00 | 0.00 | 85 | 1012.6 |
| 20260504203554 | 55 | 135 | 0.0 | 1.0 | 0.00 | 0.00 | 0.00 | 84 | 1012.4 |
| 20260504202556 | 55 | 140 | 0.0 | 1.0 | 0.00 | 0.00 | 0.00 | 84 | 1012.4 |
| 20260504200557 | 56 | 140 | 0.0 | 0.0 | 0.00 | 0.00 | 0.00 | 80 | 1012.2 |
| 20260504195555 | 57 | 128 | 0.0 | 1.0 | 0.00 | 0.00 | 0.00 | 79 | 1012.3 |
| 20260504194558 | 56 | 135 | 0.0 | 0.0 | 0.00 | 0.00 | 0.00 | 80 | 1012.4 |
| 20260504193555 | 56 | 141 | 0.0 | 0.0 | 0.00 | 0.00 | 0.00 | 80 | 1012.1 |
| 20260504192555 | 57 | 149 | 0.0 | 0.0 | 0.00 | 0.00 | 0.00 | 79 | 1012.1 |
| 20260504190554 | 58 | 144 | 0.0 | 0.0 | 0.00 | 0.00 | 0.00 | 77 | 1012.0 |
| 20260504185555 | 59 | 145 | 0.0 | 0.0 | 0.00 | 0.00 | 0.00 | 75 | 1012.0 |
| 20260504184556 | 60 | 135 | 0.0 | 0.0 | 0.00 | 0.00 | 0.00 | 73 | 1012.1 |
| 20260504183556 | 61 | 138 | 0.0 | 0.0 | 0.00 | 0.00 | 0.00 | 69 | 1011.7 |
| 20260504181555 | 63 | 143 | 0.0 | 0.0 | 0.00 | 0.00 | 0.00 | 63 | 1012.0 |
| 20260504180555 | 64 | 144 | 0.0 | 0.0 | 0.00 | 0.00 | 0.00 | 62 | 1011.6 |
| 20260504174555 | 67 | 146 | 0.0 | 0.0 | 0.00 | 0.00 | 0.00 | 56 | 1011.6 |
| 20260504171554 | 72 | 137 | 0.0 | 2.0 | 0.00 | 0.00 | 0.00 | 45 | 1011.8 |
| 20260504170555 | 74 | 147 | 0.0 | 3.0 | 0.00 | 0.00 | 0.00 | 43 | 1011.6 |
| 20260504150555 | 81 | 181 | 4.0 | 7.0 | 0.00 | 0.00 | 0.00 | 37 | 1011.9 |
| 20260504130555 | 78 | 178 | 3.0 | 7.0 | 0.00 | 0.00 | 0.00 | 40 | 1012.8 |
| 20260504110543 | 77 | 206 | 4.0 | 8.0 | 0.00 | 0.00 | 0.00 | 42 | 1013.6 |